Regional Weather Roundup
Issued by NWS

Home | Current Version | Previous Version | Graphics & Text | Print | Product List | Glossary On
Versions: 1 2 3 4 5 6 7 8 9 10 11 12 13 14 15 16 17 18 19 20 21 22 23 24 25 26 27 28 29 30 31 32 33 34 35 36 37 38 39 40 41 42 43 44 45 46 47 48 49 50
000
ASUS43 KLSX 101507
RWRMO

WEATHER SUMMARY FOR MISSOURI
NATIONAL WEATHER SERVICE SPRINGFIELD MO
1000 AM CDT THU JUL 10 2014

NOTE: "FAIR" INDICATES FEW OR NO CLOUDS BELOW 12,000 FEET WITH NO
       SIGNIFICANT WEATHER AND/OR OBSTRUCTIONS TO VISIBILITY.
       CURRENT SKY AND/OR WEATHER CONDITIONS ARE NOT AVAILABLE FOR
       CHILLICOTHE AND FARMINGTON.

MOZ001>031-035>038-043-044-053-054-101600-
...NORTHERN AND WESTERN MISSOURI...

CITY           SKY/WX    TMP DP  RH WIND       PRES   REMARKS
KANSAS CTY INT PTSUNNY   74  62  66 SE14      30.10R
KANSAS C DTWN  PTSUNNY   75  61  61 SE7       30.09S
LEE`S SUMMIT   CLOUDY    73  61  65 SE10      30.11S
ST JOSEPH      PTSUNNY   75  61  61 S9        30.09S
CHILLICOTHE      N/A     75  60  59 S6        30.14R
KIRKSVILLE     MOSUNNY   74  59  59 S12       30.15S

$$
MOZ066>068-077>081-088>096-101>105-101600-
...SOUTHWEST MISSOURI...

CITY           SKY/WX    TMP DP  RH WIND       PRES   REMARKS
SPRINGFIELD    CLOUDY    72  62  71 SE7       30.12F
JOPLIN         LGT RAIN  68  64  87 S6        30.11F

$$
MOZ032>034-039>042-045>050-055>058-069>072-101600-
...CENTRAL MISSOURI...

CITY           SKY/WX    TMP DP  RH WIND       PRES   REMARKS
COLUMBIA       CLOUDY    74  62  66 SE6       30.15R
JEFFERSON CITY CLOUDY    71  62  73 S6        30.15R
ROLLA            N/A     72  60  66 E7        30.15R
SEDALIA        CLOUDY    74  64  71 SE7       30.14R
WHITEMAN AFB   PTSUNNY   73  57  57 SE9       30.12S
OSAGE BEACH    PTSUNNY   72  63  73 S3        30.15R

$$
MOZ051-052-059>065-101600-
...EAST CENTRAL MISSOURI...

CITY           SKY/WX    TMP DP  RH WIND       PRES   REMARKS
ST LOUIS INTL  PTSUNNY   78  59  51 E8        30.15F
SPIRIT OF STL  SUNNY     76  62  62 NE3       30.14R
ST CHARLES     SUNNY     75  61  61 E8        30.14F

$$
MOZ072>076-082>087-097>100-106>115-101600-
...SOUTH CENTRAL AND SOUTHEAST MISSOURI...

CITY           SKY/WX    TMP DP  RH WIND       PRES   REMARKS
CAPE GIRARDEAU SUNNY     78  63  59 E5        30.11S
FARMINGTON     PTSUNNY   73  61  64 E5        30.16S
POPLAR BLUFF   PTSUNNY   77  63  61 NE6       30.11R
WEST PLAINS    PTSUNNY   73  62  68 E7        30.15S

$$



USA.gov is the U.S. government's official web portal to all federal, state and local government web resources and services.